GEFSGL_500_meanwind_210.txt.gz
Wind_Speed
7 8 8 8 8 8 8 7 7 7 7 7 7 7 7 7 7 7 7 7 7 8 9 9 10 10 10 10 11 11 11 11 11 11 12 12 13 14 14 15 16 17 17
7 7 7 8 8 8 8 8 8 8 8 8 8 8 8 8 8 8 8 8 8 9 10 10 10 10 11 11 11 11 11 11 12 12 12 13 14 15 16 16 17 18 18
8 8 8 8 8 8 8 8 8 9 9 8 8 8 8 8 8 9 9 10 10 10 10 11 11 11 11 11 11 11 12 12 13 14 14 15 16 17 18 19 20 20 20
8 8 8 8 8 8 8 8 8 9 9 9 9 9 9 9 9 9 10 10 11 11 10 11 11 11 11 11 12 12 13 14 15 15 16 17 18 19 20 20 21 22 23
8 7 8 8 8 9 9 9 9 9 9 9 9 10 10 9 10 10 11 11 11 11 11 11 11 11 12 12 13 14 14 15 16 17 18 18 19 20 20 21 22 23 24
8 8 9 9 9 9 9 10 10 10 10 10 10 10 10 10 11 12 12 12 12 12 12 12 13 13 13 14 14 15 16 16 17 18 19 20 20 21 22 22 23 24 25
9 9 9 10 10 10 10 10 11 11 11 11 12 12 12 12 12 13 13 13 13 13 13 14 14 14 14 15 16 16 17 18 19 20 20 21 21 22 23 24 25 26 27
9 10 10 10 11 11 11 12 12 12 12 13 13 13 13 13 13 13 14 14 14 14 15 15 15 16 16 17 17 17 18 19 20 21 22 22 23 24 25 26 27 27 28
10 11 11 12 12 12 12 13 13 14 14 14 14 14 15 15 15 15 15 15 15 15 16 16 17 17 18 18 19 19 20 21 22 23 23 24 24 25 26 27 28 29 29
12 12 12 13 13 14 13 14 14 14 15 15 16 16 16 16 16 16 16 16 16 16 17 18 18 18 18 19 20 20 21 22 23 24 25 25 26 26 27 28 29 30 30
13 13 13 13 13 14 15 15 15 15 15 15 16 17 17 17 17 17 18 18 18 18 19 19 20 20 20 21 22 22 23 24 24 25 25 26 27 27 28 29 30 31 31
14 14 15 15 15 15 16 17 17 17 16 16 17 17 18 18 18 19 19 20 20 20 20 21 21 22 22 23 23 24 24 25 25 26 27 28 28 29 30 31 31 32 33
15 16 16 17 17 17 17 18 18 18 17 18 18 18 19 19 20 21 21 21 21 21 22 23 23 23 23 24 24 25 26 26 27 28 29 29 30 31 32 33 33 34 35
17 18 18 18 19 18 18 19 19 19 19 19 20 20 20 21 21 22 22 22 22 23 23 24 24 24 25 25 26 26 27 28 29 30 30 31 32 33 34 35 36 36 37
19 20 19 19 19 19 20 20 21 21 21 21 21 21 22 22 22 23 23 23 24 25 25 25 25 26 26 27 28 28 29 30 31 32 33 34 34 35 36 37 38 38 38
21 21 21 21 21 21 21 21 22 22 23 23 23 23 23 23 24 24 25 25 26 26 27 27 27 27 28 29 30 30 31 32 33 34 35 36 36 37 37 38 39 39 39
22 22 22 23 23 23 23 23 23 24 24 24 24 24 25 25 26 27 27 28 28 29 29 29 29 30 30 31 32 33 33 34 35 36 37 37 37 38 39 39 39 39 39
23 24 24 25 25 25 24 24 24 24 24 25 25 26 27 27 28 29 29 29 30 30 30 31 31 32 32 33 34 34 35 36 37 37 38 38 38 39 40 40 40 40 41
24 24 24 25 25 25 25 25 25 25 26 26 27 28 29 29 30 30 31 31 31 31 32 32 33 33 34 34 35 36 37 38 38 38 38 39 39 40 41 41 41 41 42
25 25 25 25 25 25 26 26 26 27 27 28 28 29 30 31 31 31 31 31 31 32 32 33 33 34 34 35 36 37 38 38 38 39 39 40 41 42 42 41 41 42 42
27 26 26 25 25 26 27 28 28 28 28 29 29 30 31 31 31 31 31 32 32 32 33 33 34 34 35 36 36 37 38 38 39 39 40 41 42 42 42 42 43 43 43
28 28 27 27 27 27 28 29 29 29 29 29 30 30 31 32 32 32 31 32 32 33 33 34 34 35 36 36 37 38 39 39 39 40 41 41 42 42 43 43 43 44 43
29 29 28 28 28 29 29 29 29 29 30 30 30 31 31 32 32 32 32 32 33 33 34 34 35 35 36 37 38 39 39 39 40 41 41 41 41 42 43 43 43 43 43
30 30 29 29 29 29 29 29 29 30 30 30 31 31 31 31 32 33 33 34 34 34 34 35 36 37 38 39 39 39 39 40 41 41 41 40 41 41 42 42 43 43 43
31 30 30 30 30 30 30 30 30 31 31 31 31 32 32 32 33 33 34 34 35 35 36 36 37 38 39 39 39 39 39 40 40 40 40 40 40 41 42 42 42 42 42
32 32 32 32 31 31 31 31 31 31 32 32 33 33 33 34 34 34 35 34 35 35 35 36 37 37 37 37 38 38 37 38 38 38 38 39 40 41 41 41 41 41 40

GEFSGL_500_meanwind_216.txt.gz
Wind_Speed
6 6 7 7 7 7 6 5 5 5 5 5 5 5 6 6 6 7 7 7 6 7 8 8 8 9 9 9 9 8 8 9 9 10 10 11 12 13 14 14 14 15 16
7 7 7 7 7 7 6 5 5 5 5 5 5 5 5 5 6 6 6 6 7 7 8 8 8 8 9 9 9 9 9 9 10 11 12 12 13 14 14 15 16 17 18
6 7 6 6 6 7 6 6 6 6 7 7 6 5 5 5 6 6 6 6 7 8 8 8 9 9 8 9 9 9 10 10 11 12 13 14 14 15 16 17 18 19 19
6 6 6 7 7 7 7 7 6 6 7 7 6 7 6 6 7 7 7 8 8 8 8 8 8 8 9 10 10 10 11 12 13 14 14 15 16 17 18 19 20 20 21
6 6 7 7 7 8 8 7 7 8 8 7 7 7 7 8 8 8 8 8 8 9 9 9 10 10 10 11 12 12 13 14 15 15 16 17 17 18 19 20 21 22 23
7 8 7 7 8 8 9 9 9 8 8 8 8 9 9 9 9 9 9 10 10 10 10 10 10 11 11 12 14 15 15 16 16 17 18 19 20 20 21 22 23 24 24
9 8 8 8 8 9 9 9 9 9 9 10 10 10 10 10 10 10 10 11 12 12 12 12 13 13 14 14 15 16 17 17 18 18 19 20 22 22 23 24 25 25 26
10 10 9 9 10 9 9 9 9 9 10 11 11 11 11 11 11 11 12 13 13 13 14 14 15 15 15 16 17 17 18 19 19 20 21 22 23 23 24 25 26 27 27
11 11 11 11 10 10 10 10 10 10 11 11 11 12 12 12 12 13 13 14 14 15 16 16 16 17 17 18 19 19 20 20 20 21 22 23 24 25 26 27 27 28 28
13 12 12 12 12 12 11 12 12 12 12 12 12 13 13 13 13 14 15 15 16 16 17 18 19 19 19 20 20 21 21 22 23 23 24 24 25 26 27 28 29 29 29
14 14 14 13 13 14 14 14 13 14 14 14 14 14 14 15 15 16 16 17 17 18 19 20 20 21 22 22 22 22 22 23 24 25 25 26 27 27 28 29 29 30 31
16 15 15 15 15 15 16 16 16 16 16 16 16 16 17 17 17 17 18 18 19 20 20 21 22 23 23 23 23 24 24 25 26 26 27 28 28 29 29 30 30 31 32
17 17 17 17 17 18 18 18 18 18 18 18 18 18 19 19 20 20 20 20 20 21 22 23 24 24 24 25 25 26 27 27 28 28 29 29 30 31 31 31 31 32 33
19 19 19 19 19 19 19 19 20 20 20 20 20 20 21 21 21 21 21 21 22 23 23 24 25 26 26 27 27 27 28 29 29 30 30 31 31 32 32 33 33 34 35
21 21 21 21 21 21 21 21 21 22 22 22 22 22 22 22 22 22 22 24 24 25 25 26 27 28 28 28 28 29 30 30 30 31 31 32 32 33 33 34 35 36 37
22 22 22 22 23 23 23 22 23 24 23 23 23 23 23 24 24 24 25 25 26 27 28 28 29 29 29 29 30 30 31 31 31 32 33 33 34 34 35 36 37 37 37
24 24 24 24 24 24 24 24 24 25 25 25 25 25 26 26 27 27 27 28 28 29 29 29 29 29 30 30 30 31 31 32 32 33 34 34 35 36 36 37 37 37 38
25 25 25 25 25 25 25 25 26 26 26 26 26 26 27 28 28 29 29 29 29 30 29 29 30 30 30 31 31 32 32 33 34 34 35 35 36 37 37 37 38 38 39
26 26 26 26 26 26 26 27 27 27 27 27 27 27 28 28 28 29 29 30 30 30 30 30 30 30 31 31 32 33 34 34 35 35 36 37 37 37 37 38 39 39 39
28 28 27 27 27 27 28 28 28 28 29 29 29 29 29 29 29 29 29 30 30 31 31 31 31 31 32 32 33 34 35 35 36 37 37 37 37 38 38 39 39 39 39
28 28 28 28 29 29 29 29 29 29 29 29 29 29 30 30 30 30 30 31 31 31 31 31 31 32 32 33 34 35 36 36 37 38 38 38 38 38 39 39 39 40 40
29 29 29 30 30 29 29 29 29 29 29 29 29 30 30 30 31 31 31 31 32 32 32 32 33 33 33 34 35 35 36 37 37 38 39 39 39 39 39 39 39 39 39
30 30 30 30 30 30 30 29 29 29 29 29 29 30 31 31 32 32 31 31 32 32 33 33 33 34 35 36 36 36 37 37 37 38 38 38 38 38 37 38 38 38 39
30 30 30 30 30 30 30 30 30 30 30 30 31 32 32 32 33 32 32 32 31 32 32 33 34 35 35 35 36 36 37 37 37 37 36 36 36 36 36 36 37 38 38
31 31 31 31 31 31 31 31 31 31 31 32 32 32 33 33 32 32 31 31 31 32 32 33 34 34 35 35 35 36 36 37 37 36 36 36 36 36 36 36 36 37 38
33 32 32 32 32 32 31 31 32 32 32 32 32 32 32 32 32 32 31 31 31 32 32 32 33 34 35 35 36 36 36 36 36 35 35 35 36 36 35 35 35 36 37

GEFSGL_500_meanwind_222.txt.gz
Wind_Speed
5 5 5 6 6 6 6 6 6 6 5 5 6 6 6 6 7 7 7 6 7 7 7 8 8 8 9 9 9 9 9 9 10 11 12 12 13 13 13 14 14 15 16
6 6 7 7 7 7 7 7 7 7 6 6 7 6 6 6 7 7 7 7 7 7 8 8 8 9 9 9 9 10 10 11 11 12 13 13 13 14 14 15 15 16 18
7 7 7 7 7 7 7 7 7 8 7 7 7 7 7 6 6 6 6 7 7 7 8 8 9 9 10 10 10 11 11 12 13 14 14 14 14 15 16 16 17 18 19
8 8 7 8 8 8 7 7 8 8 8 7 7 8 8 7 7 8 8 8 8 8 9 9 10 10 11 11 11 11 12 13 14 15 15 16 16 17 18 19 19 20 21
9 9 9 9 8 8 9 8 8 8 8 7 8 8 8 8 8 9 10 9 9 10 11 11 12 12 12 12 12 12 13 14 15 16 17 18 18 19 21 21 21 22 23
10 10 10 10 10 9 9 9 9 9 8 8 8 8 9 9 9 10 10 11 11 12 12 13 13 13 13 13 13 14 15 16 16 17 18 19 20 21 22 23 23 23 24
11 11 11 11 11 10 10 10 9 9 9 9 9 10 10 10 10 11 11 12 13 13 14 14 14 14 14 14 15 16 17 18 18 19 20 21 21 22 23 24 24 25 25
13 12 12 12 11 11 11 11 11 11 10 11 11 11 11 11 12 12 13 14 14 14 14 15 15 16 16 17 17 18 18 19 20 20 21 22 22 23 24 25 25 26 26
14 13 13 13 13 13 12 12 12 12 12 12 12 12 13 13 13 13 14 14 14 15 16 16 17 17 18 19 20 20 20 21 22 23 23 24 25 26 26 26 27 27 28
15 15 15 15 14 14 14 14 14 14 13 14 14 15 14 14 15 15 15 15 16 16 17 17 18 18 19 20 21 21 22 23 24 25 25 26 27 27 28 28 28 29 29
17 17 16 16 15 15 15 15 15 15 15 15 16 16 16 16 16 17 17 17 17 17 17 18 19 20 21 21 23 24 24 25 26 26 27 27 28 28 29 29 29 30 30
18 17 17 17 16 16 16 16 16 16 16 16 16 16 17 17 18 18 18 18 18 19 20 20 21 22 23 24 25 26 26 27 27 28 28 29 29 29 29 30 30 30 31
19 19 19 18 18 18 18 18 18 17 18 18 18 18 18 19 19 19 19 20 20 21 22 23 24 25 25 26 27 27 27 28 29 29 29 29 29 29 30 30 31 31 32
21 21 21 20 20 20 20 20 20 20 20 20 20 20 21 21 21 21 22 22 22 23 24 25 26 26 27 28 28 29 29 30 30 30 30 30 30 30 31 31 32 31 32
23 23 22 22 22 21 22 21 21 22 22 22 22 22 22 22 23 24 24 24 25 25 26 26 27 28 28 28 29 29 30 30 30 31 31 31 31 32 32 33 33 33 33
24 24 24 24 24 24 24 24 24 23 23 23 23 24 24 24 25 25 26 26 27 28 28 28 28 29 29 29 30 30 30 30 31 31 32 32 32 32 33 33 34 34 35
26 26 26 26 26 26 25 25 25 25 25 25 25 26 26 26 27 27 28 28 29 29 29 29 29 29 29 30 30 30 30 31 32 32 33 33 33 33 34 35 36 36 36
27 27 27 27 27 27 26 27 27 27 27 27 28 28 29 29 29 29 30 30 30 30 30 30 30 30 30 30 30 30 31 32 32 33 33 33 34 35 36 36 37 37 37
28 28 28 28 28 28 28 28 28 28 28 29 29 29 30 30 31 31 32 31 30 30 30 30 30 31 31 31 31 31 32 33 33 34 34 34 35 36 37 38 37 37 37
28 29 29 29 29 28 28 29 29 29 29 29 29 30 30 31 31 31 31 31 30 30 30 30 31 31 31 31 32 32 33 34 34 35 35 36 37 38 38 38 37 37 37
30 30 30 30 30 30 30 29 29 30 29 29 29 30 30 30 31 30 30 30 30 31 31 32 32 32 32 32 33 33 34 34 35 35 36 37 37 37 37 37 37 37 37
32 31 31 31 31 31 31 31 30 29 29 29 30 30 30 31 31 31 31 31 32 32 33 33 33 33 33 34 34 34 35 35 35 36 36 37 37 37 36 36 37 37 37
33 33 33 32 32 32 31 31 31 30 31 31 31 31 31 32 32 32 32 32 32 33 33 33 34 34 34 35 35 35 36 36 36 36 37 37 37 37 36 36 36 37 37
34 34 33 33 33 33 32 32 32 32 32 32 32 32 33 32 32 32 32 33 33 33 33 33 34 34 35 35 35 36 36 36 36 36 36 36 36 36 36 36 37 37 36
34 34 34 34 34 34 33 33 33 33 33 33 33 33 33 33 32 32 32 33 33 34 34 34 34 35 35 36 36 36 37 36 36 36 36 36 36 36 36 37 37 36 36
34 34 35 35 35 35 34 34 34 34 33 34 34 34 33 33 33 33 33 33 34 34 35 35 35 35 35 36 36 36 36 36 35 35 36 36 36 36 36 36 36 36 35

GEFSGL_500_meanwind_228.txt.gz
Wind_Speed
5 5 4 5 5 5 5 5 5 5 5 5 5 5 5 6 6 6 6 6 7 7 7 7 7 7 8 8 9 9 10 10 10 11 11 11 12 13 13 14 15 15 16
5 5 5 5 5 5 5 5 6 6 6 6 6 6 7 7 7 8 8 7 7 8 8 8 8 8 9 9 9 10 10 11 11 12 12 13 14 15 15 16 16 16 17
7 7 7 7 7 7 7 7 6 6 7 6 6 7 8 8 8 7 7 8 8 8 8 8 8 9 9 10 10 11 11 11 12 13 14 15 16 16 16 17 17 18 19
7 8 8 7 7 7 8 8 8 8 7 7 7 8 8 7 7 7 7 8 9 8 9 9 10 10 10 11 11 11 12 12 13 14 15 16 17 17 18 19 19 20 21
8 8 9 8 8 8 8 8 8 8 8 8 8 8 8 7 7 8 8 8 8 9 9 10 11 11 11 11 12 13 13 14 15 15 16 17 18 19 20 21 21 22 22
9 9 9 9 9 9 9 9 9 9 9 9 9 8 8 8 8 8 9 9 9 10 10 11 12 12 12 13 14 14 14 15 16 17 18 19 20 20 21 22 23 23 24
11 10 10 10 11 11 11 10 10 10 10 9 9 9 9 9 9 9 10 10 11 12 12 12 13 13 14 14 15 16 16 17 18 19 19 20 21 21 22 23 24 25 26
12 12 12 12 12 12 11 12 11 11 11 10 10 10 10 10 11 11 11 12 13 13 14 14 14 14 15 16 16 17 18 19 19 19 20 21 22 22 24 25 25 26 27
13 13 13 12 13 13 13 13 13 13 13 13 13 13 13 13 14 14 14 14 14 15 15 15 15 15 16 16 17 18 19 20 21 21 22 23 23 24 25 26 26 27 28
15 14 14 13 14 14 13 14 14 14 14 14 14 14 15 15 15 16 16 16 16 16 16 16 16 17 17 18 19 20 21 22 23 23 24 24 24 25 26 27 27 28 29
16 16 16 15 15 16 15 15 15 15 15 15 15 16 16 17 17 17 17 17 17 18 18 18 18 18 19 20 20 21 22 23 24 24 25 25 26 26 27 27 28 28 29
19 18 18 17 17 17 17 17 16 16 16 16 17 17 18 18 19 19 19 19 19 19 20 20 21 21 21 21 22 22 23 24 25 25 26 26 27 27 28 28 29 29 30
20 20 20 19 19 19 18 19 19 19 18 19 19 19 19 19 20 20 20 21 21 21 22 22 23 23 23 23 23 24 25 25 25 26 27 27 27 28 28 29 30 30 31
22 21 21 21 20 20 20 20 20 21 21 20 20 20 20 21 21 21 21 22 22 23 23 24 25 25 25 25 25 26 26 27 27 28 28 28 29 29 29 29 30 30 31
24 23 23 22 22 22 22 22 22 22 23 23 23 23 22 22 22 22 23 23 23 24 25 25 25 26 26 26 27 27 28 28 28 29 29 29 30 30 30 31 32 32 33
25 25 24 24 24 24 24 24 23 23 24 24 24 24 24 24 24 23 24 25 25 26 26 26 26 27 27 28 28 29 28 28 29 29 30 30 30 31 31 32 32 33 34
26 26 26 26 26 26 25 25 25 25 25 25 26 26 26 26 26 26 26 27 27 28 27 27 27 28 28 29 29 29 29 29 30 30 31 31 32 32 32 33 33 34 34
28 28 28 28 28 27 26 27 27 27 27 27 27 28 28 28 28 28 28 28 28 29 29 29 29 30 30 30 30 30 30 30 31 32 32 33 33 34 34 35 35 36 36
29 29 29 30 29 28 28 28 28 28 29 29 29 30 30 30 30 30 30 30 30 30 30 30 31 31 31 31 31 31 31 32 32 33 33 34 35 35 36 36 37 37 37
30 30 30 30 29 29 29 29 30 30 30 31 31 31 31 31 31 31 31 31 32 32 32 32 33 33 33 33 33 32 32 33 33 34 34 35 35 36 37 37 37 37 37
31 30 31 31 31 31 31 31 31 31 31 31 31 31 32 32 32 32 32 33 33 34 34 34 34 35 35 35 35 34 34 34 35 35 35 36 36 37 38 38 38 38 37
31 31 31 31 32 33 32 33 33 33 32 32 32 33 34 34 34 34 34 34 34 35 35 35 35 35 35 36 36 36 36 36 36 36 37 37 38 38 38 38 38 38 38
32 32 32 32 32 33 34 34 34 34 34 34 34 34 35 35 35 35 35 35 35 34 35 35 35 35 35 36 36 36 36 36 37 38 38 38 38 38 37 37 37 37 37
33 34 33 33 33 33 34 34 34 34 34 34 35 35 35 36 36 36 36 35 35 35 35 36 36 36 36 36 36 36 36 37 37 38 38 37 37 37 37 37 36 37 37
35 35 34 34 34 34 34 35 35 35 36 36 35 35 36 36 36 36 36 36 36 36 36 36 36 36 36 36 36 36 37 37 37 37 37 37 37 37 37 37 36 37 37
35 35 35 35 35 35 35 36 36 37 37 37 36 36 36 36 36 36 36 36 36 36 36 37 37 36 37 37 36 37 37 37 37 37 37 37 37 37 37 36 36 36 36